GW4780 Weather Reports


time (UTC)temp
C
wind
direction
speed
KPH
gust
KPH
rain 1hr
cm
rain 24hr
cm
rain mn
cm
humidity
%
barometer
mb
20260507155503 15 112 3.2 12.9 0.00 0.00 0.00 52 1014.5
20260507155003 15 148 4.8 11.3 0.00 0.00 0.00 52 1014.6
20260507154503 15 157 4.8 11.3 0.00 0.00 0.00 52 1014.7
20260507154005 15 129 3.2 9.7 0.00 0.00 0.00 52 1014.7
20260507153504 14 126 3.2 11.3 0.00 0.00 0.00 53 1014.8
20260507153003 14 144 4.8 12.9 0.00 0.00 0.00 53 1014.8
20260507152504 15 140 4.8 12.9 0.00 0.00 0.00 53 1014.8
20260507152004 15 141 4.8 12.9 0.00 0.00 0.00 53 1014.8
20260507151503 15 141 4.8 12.9 0.00 0.00 0.00 52 1014.9
20260507151003 15 136 4.8 14.5 0.00 0.00 0.00 53 1014.9
20260507150503 15 123 4.8 14.5 0.00 0.00 0.00 53 1015.0
20260507150005 15 139 4.8 12.9 0.00 0.00 0.00 52 1014.9
20260507145504 15 160 4.8 9.7 0.00 0.00 0.00 51 1014.9
20260507145003 15 169 4.8 11.3 0.00 0.00 0.00 53 1014.9
20260507144718 15 165 4.8 11.3 0.00 0.00 0.00 52 1014.9
20260507144003 15 146 3.2 9.7 0.00 0.00 0.00 52 1014.9
20260507143503 15 144 3.2 9.7 0.00 0.00 0.00 53 1015.0
20260507143219 15 149 3.2 9.7 0.00 0.00 0.00 52 1015.0
20260507142504 15 137 3.2 11.3 0.00 0.00 0.00 52 1015.0
20260507142003 15 126 3.2 11.3 0.00 0.00 0.00 52 1015.0
20260507141503 15 151 3.2 9.7 0.00 0.00 0.00 52 1015.1
20260507141004 15 161 4.8 9.7 0.00 0.00 0.00 51 1015.1
20260507140503 15 164 4.8 9.7 0.00 0.00 0.00 51 1015.2
20260507140005 15 155 4.8 9.7 0.00 0.00 0.00 51 1015.2
20260507135503 15 155 4.8 9.7 0.00 0.00 0.00 50 1015.2
20260507135003 15 169 6.4 11.3 0.00 0.00 0.00 50 1015.2
20260507134503 15 170 6.4 12.9 0.00 0.00 0.00 50 1015.2
20260507134003 15 165 4.8 12.9 0.00 0.00 0.00 52 1015.2
20260507133718 15 160 4.8 12.9 0.00 0.00 0.00 52 1015.2
20260507133004 15 161 4.8 12.9 0.00 0.00 0.00 51 1015.3
20260507132503 15 160 4.8 12.9 0.00 0.00 0.00 51 1015.2
20260507132003 15 146 4.8 12.9 0.00 0.00 0.00 50 1015.2
20260507131504 16 166 6.4 16.1 0.00 0.00 0.00 49 1015.4
20260507131003 16 173 8.0 17.7 0.00 0.00 0.00 50 1015.3
20260507130504 16 168 6.4 17.7 0.00 0.00 0.00 49 1015.3
20260507130005 17 181 8.0 17.7 0.00 0.00 0.00 50 1015.3
20260507125504 16 184 8.0 16.1 0.00 0.00 0.00 48 1015.3
20260507125004 16 172 4.8 16.1 0.00 0.00 0.00 50 1015.3
20260507124503 16 171 4.8 12.9 0.00 0.00 0.00 52 1015.3
20260507124003 16 173 6.4 16.1 0.00 0.00 0.00 51 1015.3
20260507123503 16 179 4.8 16.1 0.00 0.00 0.00 52 1015.3
20260507123003 16 181 3.2 9.7 0.00 0.00 0.00 52 1015.2
20260507122504 16 175 3.2 11.3 0.00 0.00 0.00 52 1015.3
20260507122004 16 180 6.4 12.9 0.00 0.00 0.00 51 1015.3
20260507121503 16 168 6.4 14.5 0.00 0.00 0.00 51 1015.4
20260507121003 16 133 4.8 14.5 0.00 0.00 0.00 48 1015.4
20260507120503 16 161 4.8 12.9 0.00 0.00 0.00 53 1015.3
20260507120004 16 189 6.4 14.5 0.00 0.00 0.00 51 1015.5
20260507115503 16 180 6.4 14.5 0.00 0.00 0.00 52 1015.6
20260507115004 16 151 4.8 14.5 0.00 0.00 0.00 54 1015.6
20260507114503 16 146 4.8 9.7 0.00 0.00 0.00 56 1015.6
20260507114003 16 168 6.4 14.5 0.00 0.00 0.00 56 1015.6
20260507113504 15 174 6.4 14.5 0.00 0.00 0.00 54 1015.6
20260507113218 15 181 4.8 14.5 0.00 0.00 0.00 54 1015.6
20260507112503 15 166 4.8 14.5 0.00 0.00 0.00 54 1015.7
20260507112003 15 154 4.8 14.5 0.00 0.00 0.00 56 1015.7
20260507111506 15 167 4.8 12.9 0.00 0.00 0.00 56 1015.7
20260507111004 15 167 6.4 14.5 0.00 0.00 0.00 57 1015.8
20260507110504 15 158 6.4 14.5 0.00 0.00 0.00 55 1015.7
20260507110005 15 120 4.8 14.5 0.00 0.00 0.00 57 1015.7
20260507105504 15 125 4.8 14.5 0.00 0.00 0.00 59 1015.7
20260507105003 14 163 4.8 9.7 0.00 0.00 0.00 60 1015.8
20260507104503 14 168 4.8 9.7 0.00 0.00 0.00 61 1015.8
20260507104003 14 169 6.4 14.5 0.00 0.00 0.00 60 1015.9
20260507103503 14 162 6.4 14.5 0.00 0.00 0.00 60 1015.9
20260507103003 14 129 4.8 12.9 0.00 0.00 0.00 60 1016.0
20260507102503 14 145 4.8 12.9 0.00 0.00 0.00 62 1016.0
20260507102006 13 164 6.4 12.9 0.00 0.00 0.00 62 1016.0
20260507101717 13 164 6.4 12.9 0.00 0.00 0.00 62 1016.0
20260507101003 13 149 4.8 16.1 0.00 0.00 0.00 62 1016.1
20260507100504 13 143 6.4 16.1 0.00 0.00 0.00 64 1016.2
20260507100003 13 139 4.8 12.9 0.00 0.00 0.00 64 1016.0
20260507095503 13 154 4.8 11.3 0.00 0.00 0.00 66 1016.1
20260507095003 12 163 4.8 11.3 0.00 0.00 0.00 66 1016.1
20260507094504 12 160 4.8 11.3 0.00 0.00 0.00 68 1016.1
20260507094218 12 156 4.8 11.3 0.00 0.00 0.00 68 1016.2
20260507093504 12 157 3.2 9.7 0.00 0.00 0.00 69 1016.2
20260507093004 12 148 4.8 11.3 0.00 0.00 0.00 69 1016.2
20260507092503 12 155 4.8 12.9 0.00 0.00 0.00 70 1016.2
20260507092219 12 163 6.4 14.5 0.00 0.00 0.00 70 1016.2
20260507091503 12 177 6.4 16.1 0.00 0.00 0.00 71 1016.2
20260507091003 12 173 4.8 16.1 0.00 0.00 0.00 71 1016.2
20260507090504 11 173 4.8 11.3 0.00 0.00 0.00 71 1016.2
20260507090217 11 171 4.8 11.3 0.00 0.00 0.00 72 1016.2
20260507085503 11 160 4.8 16.1 0.00 0.00 0.00 72 1016.3
20260507085003 11 161 4.8 16.1 0.00 0.00 0.00 72 1016.3
20260507084504 11 163 4.8 11.3 0.00 0.00 0.00 72 1016.3
20260507084217 11 165 4.8 11.3 0.00 0.00 0.00 72 1016.3
20260507083503 11 134 4.8 9.7 0.00 0.00 0.00 73 1016.2
20260507083004 11 123 3.2 9.7 0.00 0.00 0.00 74 1016.2
20260507082718 11 139 3.2 11.3 0.00 0.00 0.00 74 1016.2
20260507082004 11 151 3.2 11.3 0.00 0.00 0.00 76 1016.3
20260507081504 10 151 3.2 9.7 0.00 0.00 0.00 76 1016.3
20260507081003 10 155 3.2 9.7 0.00 0.00 0.00 78 1016.3
20260507080503 10 159 3.2 9.7 0.00 0.00 0.00 81 1016.3
20260507080005 9 149 3.2 8.0 0.00 0.00 0.00 84 1016.3
20260507075503 8 134 3.2 6.4 0.00 0.00 0.00 87 1016.3
20260507075003 7 109 1.6 6.4 0.00 0.00 0.00 89 1016.2
20260507074503 7 88 0.0 4.8 0.00 0.00 0.00 91 1016.3
20260507074003 7 134 1.6 4.8 0.00 0.00 0.00 92 1016.2
20260507073718 6 170 0.0 3.2 0.00 0.00 0.00 92 1016.1
20260507073003 6 153 1.6 6.4 0.00 0.00 0.00 93 1016.2
20260507072503 6 129 1.6 6.4 0.00 0.00 0.00 94 1016.2
20260507072004 6 88 1.6 4.8 0.00 0.00 0.00 95 1016.2
20260507071718 5 84 1.6 4.8 0.00 0.00 0.00 95 1016.1
20260507071003 5 146 0.0 3.2 0.00 0.00 0.00 96 1016.1
20260507070503 5 136 0.0 3.2 0.00 0.00 0.00 96 1016.1
20260507070005 5 54 0.0 3.2 0.00 0.00 0.00 96 1016.2
20260507065504 5 44 0.0 3.2 0.00 0.00 0.00 96 1016.2
20260507065004 4 22 0.0 3.2 0.00 0.00 0.00 96 1016.2
20260507064504 4 14 0.0 1.6 0.00 0.00 0.00 96 1016.2
20260507064004 4 13 0.0 1.6 0.00 0.00 0.00 96 1016.3
20260507063504 3 11 0.0 1.6 0.00 0.00 0.00 96 1016.3
20260507063004 3 10 0.0 1.6 0.00 0.00 0.00 96 1016.3
20260507062504 3 10 0.0 1.6 0.00 0.00 0.00 96 1016.3
20260507062004 3 10 0.0 1.6 0.00 0.00 0.00 96 1016.2
20260507061503 3 10 0.0 1.6 0.00 0.00 0.00 96 1016.2
20260507061003 2 18 0.0 3.2 0.00 0.00 0.00 96 1016.2
20260507060504 2 19 0.0 3.2 0.00 0.00 0.00 96 1016.2
20260507060003 2 75 0.0 1.6 0.00 0.00 0.00 96 1016.2
20260507055717 2 75 0.0 1.6 0.00 0.00 0.00 96 1016.0
20260507055003 1 75 0.0 1.6 0.00 0.00 0.00 95 1016.0
20260507054503 1 75 0.0 3.2 0.00 0.00 0.00 95 1016.0
20260507054003 1 75 0.0 3.2 0.00 0.00 0.00 95 1016.0
20260507053719 1 75 0.0 3.2 0.00 0.00 0.00 95 1016.1
20260507053005 1 75 0.0 1.6 0.00 0.00 0.00 94 1016.0
20260507052717 1 75 0.0 1.6 0.00 0.00 0.00 94 1016.0
20260507052003 1 76 0.0 3.2 0.00 0.00 0.00 94 1016.0
20260507051504 1 93 1.6 3.2 0.00 0.00 0.00 94 1016.0
20260507051218 1 93 1.6 3.2 0.00 0.00 0.00 95 1016.0
20260507050504 1 0 0.0 0.0 0.00 0.00 0.00 94 1015.9
20260507050218 0 148 0.0 1.6 0.00 0.00 0.00 94 1015.9
20260507045503 0 149 0.0 1.6 0.00 0.00 0.00 94 1015.8
20260507045003 0 149 0.0 1.6 0.00 0.00 0.00 94 1015.8
20260507044503 0 145 0.0 3.2 0.00 0.00 0.00 94 1015.7
20260507044003 0 145 0.0 3.2 0.00 0.00 0.00 94 1015.9
20260507043503 0 0 0.0 0.0 0.00 0.00 0.00 93 1015.7
20260507043004 0 0 0.0 0.0 0.00 0.00 0.00 93 1015.7
20260507042718 0 33 0.0 1.6 0.00 0.00 0.00 93 1015.7
20260507042217 0 33 0.0 1.6 0.00 0.00 0.00 93 1015.7
20260507041504 0 33 0.0 1.6 0.00 0.00 0.00 93 1015.7
20260507041003 0 33 0.0 1.6 0.00 0.00 0.00 93 1015.7
20260507040718 0 33 0.0 1.6 0.00 0.00 0.00 93 1015.7
20260507040005 0 0 0.0 0.0 0.00 0.00 0.00 93 1015.8
20260507035718 0 0 0.0 0.0 0.00 0.00 0.00 93 1015.7
20260507035003 0 0 0.0 0.0 0.00 0.00 0.00 93 1015.8
20260507034503 0 0 0.0 0.0 0.00 0.00 0.00 93 1015.8
20260507034003 1 0 0.0 0.0 0.00 0.00 0.00 93 1015.9
20260507033718 1 0 0.0 0.0 0.00 0.00 0.00 93 1015.9
20260507033003 1 33 0.0 1.6 0.00 0.00 0.00 93 1015.9
20260507032504 1 33 0.0 1.6 0.00 0.00 0.00 93 1015.9
20260507032004 1 33 0.0 1.6 0.00 0.00 0.00 93 1015.9
20260507031504 1 33 0.0 1.6 0.00 0.00 0.00 93 1016.0
20260507031004 1 0 0.0 0.0 0.00 0.00 0.00 93 1016.1
20260507030504 1 0 0.0 0.0 0.00 0.00 0.00 93 1016.1
20260507030004 1 33 0.0 1.6 0.00 0.00 0.00 93 1016.1
20260507025503 1 33 0.0 3.2 0.00 0.00 0.00 93 1016.1
20260507025219 1 33 0.0 3.2 0.00 0.00 0.00 93 1016.1
20260507024504 1 0 0.0 0.0 0.00 0.00 0.00 93 1016.0
20260507024217 1 0 0.0 0.0 0.00 0.00 0.00 93 1015.9
20260507023504 1 33 0.0 1.6 0.00 0.00 0.00 93 1016.0
20260507023004 1 33 0.0 1.6 0.00 0.00 0.00 93 1015.9
20260507022504 1 33 0.0 1.6 0.00 0.00 0.00 93 1015.8
20260507022003 1 33 0.0 1.6 0.00 0.00 0.00 93 1015.9
20260507021503 1 43 0.0 3.2 0.00 0.00 0.00 93 1015.9
20260507021003 1 48 1.6 3.2 0.00 0.00 0.00 93 1015.9
20260507020504 1 52 0.0 1.6 0.00 0.00 0.00 93 1015.9
20260507020004 1 52 0.0 1.6 0.00 0.00 0.00 93 1015.9
20260507015718 1 52 0.0 1.6 0.00 0.00 0.00 93 1016.0
20260507015218 1 52 0.0 1.6 0.00 0.00 0.00 93 1015.9
20260507014504 1 52 0.0 1.6 0.00 0.00 0.00 93 1016.0
20260507014003 1 52 0.0 1.6 0.00 0.00 0.00 93 1016.1
20260507013503 1 52 0.0 1.6 0.00 0.00 0.00 93 1016.1
20260507013004 1 52 0.0 1.6 0.00 0.00 0.00 93 1016.1
20260507012717 1 52 0.0 1.6 0.00 0.00 0.00 93 1016.1
20260507012003 1 52 0.0 1.6 0.00 0.00 0.00 92 1016.1
20260507011503 1 0 0.0 0.0 0.00 0.00 0.00 92 1016.1
20260507011218 1 0 0.0 0.0 0.00 0.00 0.00 92 1016.0
20260507010503 1 52 0.0 1.6 0.00 0.00 0.00 92 1016.0
20260507010218 1 52 0.0 1.6 0.00 0.00 0.00 92 1016.1
20260507005717 1 52 0.0 1.6 0.00 0.00 0.00 92 1016.0
20260507005003 1 52 0.0 1.6 0.00 0.00 0.00 92 1016.0
20260507004503 2 52 0.0 1.6 0.00 0.00 0.00 92 1016.0
20260507004004 2 52 0.0 1.6 0.00 0.00 0.00 92 1015.9
20260507003504 2 0 0.0 0.0 0.00 0.00 0.00 92 1016.0
20260507003218 2 0 0.0 0.0 0.00 0.00 0.00 91 1016.0
20260507002504 2 52 0.0 1.6 0.00 0.00 0.00 91 1016.1
20260507002218 2 52 0.0 3.2 0.00 0.00 0.00 92 1016.1
20260507001503 2 52 1.6 3.2 0.00 0.00 0.00 91 1016.2
20260507001003 2 52 0.0 3.2 0.00 0.00 0.00 91 1016.3
20260507000503 2 52 0.0 1.6 0.00 0.00 0.00 91 1016.2
20260507000219 2 52 0.0 1.6 0.00 0.00 0.00 91 1016.2
20260506235504 2 0 0.0 0.0 0.00 0.00 0.00 91 1016.3
20260506235003 2 0 0.0 0.0 0.00 0.00 0.00 91 1016.2
20260506234503 2 0 0.0 0.0 0.00 0.00 0.00 91 1016.1
20260506234004 2 0 0.0 0.0 0.00 0.00 0.00 90 1016.2
20260506233504 2 0 0.0 0.0 0.00 0.00 0.00 90 1016.2
20260506233218 3 0 0.0 0.0 0.00 0.00 0.00 91 1016.2
20260506232504 3 0 0.0 0.0 0.00 0.00 0.00 90 1016.1
20260506232003 3 0 0.0 0.0 0.00 0.00 0.00 90 1016.2
20260506231503 3 52 0.0 1.6 0.00 0.00 0.00 90 1016.1
20260506231218 3 52 0.0 1.6 0.00 0.00 0.00 90 1016.1
20260506230504 3 52 0.0 1.6 0.00 0.00 0.00 90 1016.1
20260506230004 3 0 0.0 0.0 0.00 0.00 0.00 90 1016.2
20260506225504 3 0 0.0 0.0 0.00 0.00 0.00 90 1016.2
20260506225003 3 53 0.0 3.2 0.00 0.00 0.00 90 1016.2
20260506224716 3 55 1.6 3.2 0.00 0.00 0.00 90 1016.2
20260506224003 3 63 1.6 3.2 0.00 0.00 0.00 90 1016.3
20260506223503 3 66 0.0 1.6 0.00 0.00 0.00 90 1016.3
20260506223004 3 66 0.0 3.2 0.00 0.00 0.00 89 1016.3
20260506222504 4 66 0.0 3.2 0.00 0.00 0.00 89 1016.1
20260506222003 4 66 0.0 1.6 0.00 0.00 0.00 89 1016.0
20260506221504 4 0 0.0 0.0 0.00 0.00 0.00 88 1016.1
20260506221004 4 0 0.0 0.0 0.00 0.00 0.00 88 1016.0
20260506220503 4 0 0.0 0.0 0.00 0.00 0.00 87 1015.9
20260506220004 5 0 0.0 0.0 0.00 0.00 0.00 87 1016.0
20260506215504 5 0 0.0 0.0 0.00 0.00 0.00 87 1015.9
20260506215003 5 0 0.0 0.0 0.00 0.00 0.00 87 1015.9
20260506214718 5 0 0.0 0.0 0.00 0.00 0.00 87 1015.8
20260506214003 5 0 0.0 0.0 0.00 0.00 0.00 86 1015.8
20260506213504 5 0 0.0 0.0 0.00 0.00 0.00 86 1015.7
20260506213003 5 66 0.0 1.6 0.00 0.00 0.00 86 1015.7
20260506212503 5 66 0.0 3.2 0.00 0.00 0.00 86 1015.6
20260506212003 6 67 0.0 3.2 0.00 0.00 0.00 85 1015.6
20260506211503 6 67 0.0 1.6 0.00 0.00 0.00 85 1015.5
20260506211004 6 64 1.6 4.8 0.00 0.00 0.00 85 1015.5
20260506210718 6 63 0.0 4.8 0.00 0.00 0.00 84 1015.5
20260506210003 6 58 0.0 3.2 0.00 0.00 0.00 84 1015.5
20260506205503 6 81 1.6 4.8 0.00 0.00 0.00 84 1015.5
20260506205219 6 89 1.6 4.8 0.00 0.00 0.00 83 1015.5
20260506204503 6 86 0.0 4.8 0.00 0.00 0.00 83 1015.4
20260506204004 6 70 0.0 3.2 0.00 0.00 0.00 82 1015.4
20260506203503 6 67 1.6 3.2 0.00 0.00 0.00 82 1015.5
20260506203004 6 65 1.6 3.2 0.00 0.00 0.00 81 1015.5
20260506202504 7 65 1.6 3.2 0.00 0.00 0.00 80 1015.6
20260506202003 7 65 0.0 3.2 0.00 0.00 0.00 80 1015.5
20260506201504 7 75 0.0 1.6 0.00 0.00 0.00 79 1015.5
20260506201004 7 78 1.6 6.4 0.00 0.00 0.00 79 1015.4
20260506200503 7 70 1.6 6.4 0.00 0.00 0.00 78 1015.3
20260506200003 7 71 1.6 4.8 0.00 0.00 0.00 78 1015.3
20260506195504 7 80 1.6 6.4 0.00 0.00 0.00 77 1015.3
20260506195003 7 81 1.6 6.4 0.00 0.00 0.00 77 1015.3
20260506194717 7 80 1.6 6.4 0.00 0.00 0.00 76 1015.2
20260506194004 7 74 1.6 6.4 0.00 0.00 0.00 76 1015.2
20260506193719 8 73 3.2 6.4 0.00 0.00 0.00 76 1015.2
20260506193004 8 74 3.2 8.0 0.00 0.00 0.00 76 1015.2
20260506192504 8 73 3.2 9.7 0.00 0.00 0.00 76 1015.1
20260506192218 8 71 3.2 9.7 0.00 0.00 0.00 76 1015.1
20260506191504 8 65 3.2 9.7 0.00 0.00 0.00 76 1015.1
20260506191004 8 69 3.2 6.4 0.00 0.00 0.00 76 1015.0
20260506190504 8 72 1.6 6.4 0.00 0.00 0.00 75 1015.0
20260506190005 8 70 3.2 11.3 0.00 0.00 0.00 75 1015.1
20260506185504 8 76 3.2 11.3 0.00 0.00 0.00 75 1015.0
20260506185003 8 80 4.8 11.3 0.00 0.00 0.00 74 1015.0
20260506184717 8 80 4.8 12.9 0.00 0.00 0.00 74 1015.0
20260506184004 8 71 3.2 12.9 0.00 0.00 0.00 74 1015.0
20260506183719 9 69 3.2 8.0 0.00 0.00 0.00 74 1015.0
20260506183218 9 69 3.2 9.7 0.00 0.00 0.00 74 1015.0
20260506182504 9 73 3.2 11.3 0.00 0.00 0.00 73 1015.0
20260506182004 9 67 3.2 11.3 0.00 0.00 0.00 73 1015.0
20260506181503 9 60 3.2 9.7 0.00 0.00 0.00 73 1014.9
20260506181003 9 65 3.2 9.7 0.00 0.00 0.00 72 1014.9
20260506180504 9 70 3.2 11.3 0.00 0.00 0.00 72 1014.9
20260506180218 10 69 3.2 11.3 0.00 0.00 0.00 72 1014.9
20260506175503 10 67 3.2 11.3 0.00 0.00 0.00 72 1014.8
20260506175004 10 62 3.2 11.3 0.00 0.00 0.00 72 1014.7
20260506174504 10 49 3.2 8.0 0.00 0.00 0.00 73 1014.8
20260506174003 10 37 3.2 8.0 0.00 0.00 0.00 73 1014.8
20260506173504 10 54 4.8 11.3 0.00 0.00 0.00 72 1014.8
20260506173003 10 67 4.8 11.3 0.00 0.00 0.00 71 1014.7
20260506172504 10 66 4.8 11.3 0.00 0.00 0.00 71 1014.8
20260506172003 10 71 3.2 9.7 0.00 0.00 0.00 72 1014.7
20260506171718 10 71 3.2 9.7 0.00 0.00 0.00 71 1014.7
20260506171003 10 69 3.2 11.3 0.00 0.00 0.00 71 1014.7
20260506170503 10 60 3.2 11.3 0.00 0.00 0.00 70 1014.7
20260506170003 10 56 3.2 14.5 0.00 0.00 0.00 70 1014.7
20260506165718 10 58 4.8 14.5 0.00 0.00 0.00 69 1014.7
20260506165003 10 69 4.8 11.3 0.00 0.00 0.00 69 1014.6
20260506164503 10 58 4.8 11.3 0.00 0.00 0.00 69 1014.6
20260506164004 10 55 4.8 11.3 0.00 0.00 0.00 69 1014.6
20260506163504 10 64 4.8 14.5 0.00 0.00 0.00 69 1014.6
20260506163003 10 62 4.8 16.1 0.00 0.00 0.00 68 1014.6
20260506162503 10 62 4.8 16.1 0.00 0.00 0.00 69 1014.6
20260506162004 10 66 4.8 14.5 0.00 0.00 0.00 70 1014.7
20260506161503 10 69 4.8 11.3 0.00 0.00 0.00 70 1014.6
20260506161003 10 64 4.8 17.7 0.00 0.00 0.00 69 1014.6
20260506160504 10 64 6.4 17.7 0.00 0.00 0.00 68 1014.6
20260506160004 10 68 4.8 14.5 0.00 0.00 0.00 68 1014.6